{"data":{"norad_id":41890,"intl_designator":"2016-078G","name":"CYGFM07","alt_names":[],"object_type":"PAYLOAD","status":"INACTIVE","operator":null,"country":"US","launch_date":"2016-12-15","launch_site_code":"ERAS","launch_vehicle":null,"mission":null,"orbit_class":"UNKNOWN","rcs_meters":0.3239,"size_class":null,"mass_kg":null,"dimensions":null,"purposes":["earth_obs"],"wikipedia_slug":null,"has_3d_model":false,"image_url":null,"decayed_at":null,"tle_current":{"epoch":"2026-05-25T00:59:24.046656Z","epoch_age_seconds":78375,"freshness":"FRESH","line1":"1 41890U 16078G   26145.04125054  .00025401  00000+0  31792-3 0  9999","line2":"2 41890  34.9462  23.5042 0008318 327.8633  32.1584 15.58744185525384","mean_motion":15.58744185,"eccentricity":0.0008318,"inclination_deg":34.9462,"raan_deg":23.5042,"arg_perigee_deg":327.8633,"mean_anomaly_deg":32.1584,"bstar":0.00031792,"rev_number":52538,"period_min":92.382060754889,"perigee_km":385.65972804648,"apogee_km":396.92134769849,"semimajor_km":6769.4275378725,"source":"CELESTRAK","updated_at":"2026-05-25T13:38:11.920313Z"}}}